Location: D?uga
(50.2667°N, 19.7833°E)
Time: 01:51:10
(UTC+00:00)

Cosmos 405 Rocket - Pass Details

Date: 23 May 2024
Orbit: 456 x 503 km, 81.3° (Epoch: 18 June)

Event Time Altitude Azimuth Distance (km) Brightness Sun altitude
Rises 01:34:29 0° 349° (N) 2,515 6.8 -9.1°
Reaches altitude 10° 01:36:34 10° 352° (N) 1,641 5.8 -8.8°
Maximum altitude 01:40:09 72° 77° (ENE) 504 2.8 -8.5°
Drops below altitude 10° 01:43:46 10° 162° (SSE) 1,653 5.0 -8.1°
Sets 01:45:53 0° 165° (SSE) 2,537 5.9 -7.8°
